Nett Lake, MN

11:59 PM CDT on August 25, 2016 (GMT -0500)
Orr Regional

Weather History for KORB - March, 2014

Change the Weather History Date:

Monday, March 31, 2014

  Actual Average Record
Temperature  
Mean Temperature 28 °F -  
Max Temperature 42 °F 39 °F 51 °F (2015)
Min Temperature 15 °F 20 °F 12 °F (2002)
Degree Days  
Heating Degree Days 36    
Moisture  
Dew Point 25 °F    
Average Humidity 72    
Maximum Humidity 93    
Minimum Humidity 49    
Precipitation  
Precipitation 0.01 in - - ()
Sea Level Pressure  
Sea Level Pressure 29.74 in    
Wind  
Wind Speed 4 mph (NE)    
Max Wind Speed 9 mph    
Max Gust Speed 17 mph    
Visibility 8 miles    
Events Snow    
Averages and records for this station are not official NWS values.
T = Trace of Precipitation, MM = Missing Value Source: NWS Daily Summary

Daily Weather History Graph

Daily Weather History Graph

Search for Another Location

Airport or City:

Trip Planner

Search our weather history database for the weather conditions in past years. The results will help you decide how hot, cold, wet, or windy it might be!

Date:

Astronomy

Mar. 31, 2014 Rise Set
Actual Time 6:51 AM CDT 7:40 PM CDT
Civil Twilight 6:20 AM CDT 8:11 PM CDT
Nautical Twilight 5:42 AM CDT 8:49 PM CDT
Astronomical Twilight 5:03 AM CDT 9:28 PM CDT
Moon 7:11 AM CDT (3/31) 9:06 PM CDT (3/31)
Length of Visible Light 13h 51m
Length of Day
12h 48m
New Moon, 1% of the Moon is Illuminated
Mar 31
New Moon
Apr 7
First Quarter
Apr 15
Full
Apr 22
Last Quarter
Apr 29
New

Hourly Weather History & Observations

Time (CDT) Temp. Windchill Dew Point Humidity Pressure Visibility Wind Dir Wind Speed Gust Speed Precip Events Conditions
12:13 AM 39.2 °F - 30.2 °F 70% 29.89 in 10.0 mi Calm Calm - N/A   Overcast
12:33 AM 39.2 °F - 30.2 °F 70% 29.89 in 10.0 mi Calm Calm - N/A   Overcast
12:53 AM 39.2 °F - 30.2 °F 70% 29.88 in 10.0 mi Calm Calm - N/A   Mostly Cloudy
1:13 AM 37.4 °F - 30.2 °F 75% 29.88 in 10.0 mi Calm Calm - N/A   Mostly Cloudy
1:33 AM 37.4 °F 34.9 °F 30.2 °F 75% 29.89 in 10.0 mi NE 3.5 mph - N/A   Scattered Clouds
1:53 AM 37.4 °F 34.9 °F 30.2 °F 75% 29.89 in 10.0 mi NE 3.5 mph - N/A   Mostly Cloudy
2:13 AM 37.4 °F 34.9 °F 30.2 °F 75% 29.89 in 10.0 mi ENE 3.5 mph - N/A   Mostly Cloudy
2:33 AM 37.4 °F - 30.2 °F 75% 29.89 in 10.0 mi Calm Calm - N/A   Scattered Clouds
2:53 AM 37.4 °F - 30.2 °F 75% 29.89 in 10.0 mi Calm Calm - N/A   Mostly Cloudy
3:13 AM 37.4 °F - 30.2 °F 75% 29.88 in 10.0 mi Calm Calm - N/A   Overcast
3:33 AM 37.4 °F 34.9 °F 30.2 °F 75% 29.86 in 10.0 mi NE 3.5 mph - N/A   Overcast
3:53 AM 37.4 °F 32.1 °F 30.2 °F 75% 29.85 in 10.0 mi ENE 6.9 mph - N/A   Overcast
4:13 AM 37.4 °F 33.8 °F 30.2 °F 75% 29.86 in 10.0 mi NE 4.6 mph - N/A   Overcast
4:33 AM 37.4 °F - 28.4 °F 70% 29.86 in 10.0 mi Calm Calm - N/A   Overcast
4:53 AM 37.4 °F - 28.4 °F 70% 29.86 in 10.0 mi Calm Calm - N/A   Overcast
5:13 AM 35.6 °F 32.8 °F 28.4 °F 75% 29.86 in 10.0 mi NE 3.5 mph - N/A   Overcast
5:33 AM 35.6 °F 31.7 °F 28.4 °F 75% 29.85 in 10.0 mi ENE 4.6 mph - N/A   Overcast
5:53 AM 35.6 °F 31.7 °F 28.4 °F 75% 29.85 in 10.0 mi NE 4.6 mph - N/A   Mostly Cloudy
6:13 AM 35.6 °F 30.7 °F 28.4 °F 75% 29.85 in 10.0 mi NE 5.8 mph - N/A   Mostly Cloudy
6:33 AM 35.6 °F 30.7 °F 28.4 °F 75% 29.83 in 10.0 mi ENE 5.8 mph - N/A   Mostly Cloudy
6:53 AM 35.6 °F 32.8 °F 28.4 °F 75% 29.82 in 10.0 mi ENE 3.5 mph - N/A   Mostly Cloudy
7:13 AM 35.6 °F 31.7 °F 28.4 °F 75% 29.81 in 10.0 mi East 4.6 mph - N/A   Mostly Cloudy
7:33 AM 35.6 °F 30.7 °F 26.6 °F 70% 29.82 in 10.0 mi NE 5.8 mph - N/A   Scattered Clouds
7:53 AM 35.6 °F 29.9 °F 26.6 °F 70% 29.82 in 10.0 mi ENE 6.9 mph - N/A   Clear
8:13 AM 35.6 °F 31.7 °F 26.6 °F 70% 29.82 in 10.0 mi ENE 4.6 mph - N/A   Clear
8:33 AM 35.6 °F 31.7 °F 26.6 °F 70% 29.81 in 10.0 mi NE 4.6 mph - N/A   Clear
8:53 AM 37.4 °F 34.9 °F 26.6 °F 65% 29.81 in 10.0 mi NE 3.5 mph - N/A   Clear
9:13 AM 37.4 °F 31.4 °F 26.6 °F 65% 29.80 in 10.0 mi ENE 8.1 mph - N/A   Clear
9:33 AM 37.4 °F 32.8 °F 26.6 °F 65% 29.81 in 10.0 mi ENE 5.8 mph - N/A   Clear
9:53 AM 37.4 °F 34.9 °F 26.6 °F 65% 29.80 in 10.0 mi East 3.5 mph - N/A   Scattered Clouds
10:13 AM 37.4 °F 32.8 °F 26.6 °F 65% 29.79 in 10.0 mi East 5.8 mph - N/A   Mostly Cloudy
10:33 AM 37.4 °F 32.1 °F 26.6 °F 65% 29.80 in 10.0 mi East 6.9 mph - N/A   Overcast
10:53 AM 39.2 °F 37.0 °F 26.6 °F 61% 29.79 in 10.0 mi East 3.5 mph - N/A   Overcast
11:13 AM 41.0 °F 36.4 °F 26.6 °F 57% 29.78 in 10.0 mi ENE 6.9 mph - N/A   Mostly Cloudy
11:33 AM 41.0 °F 36.4 °F 26.6 °F 57% 29.77 in 10.0 mi East 6.9 mph - N/A   Scattered Clouds
11:53 AM 41.0 °F 35.8 °F 24.8 °F 53% 29.75 in 10.0 mi East 8.1 mph - N/A   Clear
12:13 PM 41.0 °F 37.1 °F 24.8 °F 53% 29.74 in 10.0 mi East 5.8 mph - N/A   Clear
12:33 PM 41.0 °F 39.0 °F 24.8 °F 53% 29.72 in 10.0 mi East 3.5 mph - N/A   Clear
12:53 PM 42.8 °F 38.0 °F 24.8 °F 49% 29.71 in 10.0 mi ENE 8.1 mph - N/A   Clear
1:13 PM 42.8 °F 38.0 °F 24.8 °F 49% 29.71 in 10.0 mi East 8.1 mph - N/A   Scattered Clouds
1:34 PM 42.8 °F 38.6 °F 26.6 °F 53% 29.68 in 10.0 mi ENE 6.9 mph - N/A   Scattered Clouds
1:53 PM 42.8 °F 38.0 °F 26.6 °F 53% 29.69 in 10.0 mi ENE 8.1 mph 17.3 mph N/A   Mostly Cloudy
2:13 PM 42.8 °F 38.6 °F 26.6 °F 53% 29.68 in 10.0 mi East 6.9 mph - N/A   Overcast
2:33 PM 42.8 °F 39.3 °F 24.8 °F 49% 29.67 in 10.0 mi ENE 5.8 mph - N/A   Overcast
2:55 PM 41.0 °F 38.0 °F 24.8 °F 53% 29.66 in 10.0 mi East 4.6 mph - N/A   Overcast
3:13 PM 41.0 °F 37.1 °F 24.8 °F 53% 29.64 in 10.0 mi East 5.8 mph - N/A   Overcast
3:33 PM 39.2 °F 34.2 °F 24.8 °F 56% 29.63 in 10.0 mi ENE 6.9 mph - N/A   Light Drizzle
3:54 PM 37.4 °F 33.8 °F 26.6 °F 65% 29.62 in 10.0 mi East 4.6 mph - N/A   Drizzle
4:13 PM 35.6 °F 29.2 °F 26.6 °F 70% 29.61 in 10.0 mi NE 8.1 mph - N/A   Drizzle
4:33 PM 33.8 °F 28.6 °F 24.8 °F 70% 29.60 in 10.0 mi NE 5.8 mph - N/A   Light Drizzle
4:53 PM 32.0 °F 25.6 °F 24.8 °F 75% 29.60 in 10.0 mi NNE 6.9 mph - N/A Snow Snow
5:13 PM 30.2 °F 23.4 °F 24.8 °F 80% 29.59 in 5.0 mi NNE 6.9 mph - N/A   Overcast
5:33 PM 30.2 °F 25.4 °F 24.8 °F 80% 29.59 in 7.0 mi NE 4.6 mph - N/A   Overcast
5:53 PM 28.4 °F 23.3 °F 24.8 °F 86% 29.63 in 7.0 mi East 4.6 mph - N/A   Overcast
6:13 PM 28.4 °F 23.3 °F 24.8 °F 86% 29.64 in 2.0 mi NE 4.6 mph - N/A Snow Light Snow
6:33 PM 28.4 °F 22.2 °F 24.8 °F 86% 29.63 in 2.0 mi NNE 5.8 mph - N/A   Overcast
6:53 PM 26.6 °F 18.2 °F 24.8 °F 93% 29.62 in 1.5 mi NNE 8.1 mph - N/A   Overcast
7:13 PM 26.6 °F 20.0 °F 21.2 °F 80% 29.63 in 4.0 mi NNE 5.8 mph - N/A   Overcast
7:33 PM 24.8 °F 16.9 °F 21.2 °F 86% 29.62 in 4.0 mi North 6.9 mph - N/A Snow Light Snow
7:53 PM 23.0 °F 13.1 °F 19.4 °F 86% 29.62 in 4.0 mi NNE 9.2 mph - N/A Snow Light Snow
8:13 PM 21.2 °F 16.4 °F 17.6 °F 86% 29.63 in 7.0 mi NNE 3.5 mph 16.1 mph N/A   Overcast
8:33 PM 21.2 °F 14.9 °F 17.6 °F 86% 29.63 in 7.0 mi North 4.6 mph - N/A   Overcast
8:53 PM 19.4 °F 14.3 °F 15.8 °F 86% 29.63 in 5.0 mi NNE 3.5 mph - N/A   Overcast
9:13 PM 19.4 °F 12.8 °F 15.8 °F 86% 29.62 in 5.0 mi North 4.6 mph - N/A   Overcast
9:33 PM 17.6 °F 9.3 °F 15.8 °F 93% 29.63 in 7.0 mi NNE 5.8 mph - N/A   Overcast
9:53 PM 17.6 °F 7.3 °F 14.0 °F 86% 29.63 in 7.0 mi NNE 8.1 mph - N/A   Overcast
10:13 PM 17.6 °F 10.7 °F 14.0 °F 86% 29.61 in 7.0 mi North 4.6 mph - N/A   Overcast
10:33 PM 17.6 °F 8.2 °F 12.2 °F 79% 29.61 in 4.0 mi NNE 6.9 mph - N/A Snow Light Snow
10:53 PM 15.8 °F 8.6 °F 12.2 °F 86% 29.62 in 1.2 mi North 4.6 mph - N/A Snow Light Snow
11:13 PM 15.8 °F 10.2 °F 12.2 °F 86% 29.62 in 1.0 mi North 3.5 mph - N/A Snow Light Snow
11:33 PM 15.8 °F 8.6 °F 12.2 °F 86% 29.60 in 1.0 mi North 4.6 mph - 0.01 in Snow Light Snow
11:53 PM 15.8 °F 10.2 °F 10.4 °F 79% 29.59 in 1.8 mi North 3.5 mph - 0.01 in   Overcast